Location: Star Hoppers Observatory
(42.7905°N, 83.6127°W)
Time: 14:44:33
(UTC-04:00)

Amateur Radio Satellites - All Passes

Search period start: 27 August 2016 14:14
Search period end: 28 August 2016 14:14
Location: Star Hoppers Observatory, 42.7905°N, 83.6127°W

Satellite Date Start Highest point End Downlink Frequencies (MHz)
Time Altitude Azimuth
Gurwin Techsat 1B 27 Aug 14:22:28 14:27:38 55° 72° (ENE) 14:32:51 435.225
AIST 2 27 Aug 14:25:32 14:29:14 32° 312° (NW) 14:33:00 435.215
ITAMSAT 1 27 Aug 14:30:01 14:33:51 21° 62° (ENE) 14:37:42 435.822/435.867
VELOX 1 27 Aug 14:33:37 14:37:15 25° 294° (WNW) 14:40:51 145.980
CUBEBUG 1 27 Aug 14:37:05 14:40:12 19° 296° (WNW) 14:43:17 437.445
GONETS M04 27 Aug 14:37:37 14:45:18 34° 291° (WNW) 14:53:07
SWISSCUBE 27 Aug 14:40:07 14:41:08 11° 88° (E) 14:42:10 437.505
DX 1 27 Aug 14:52:13 14:55:40 23° 294° (WNW) 14:59:06 434.975-435.025
Oscar 19 27 Aug 14:54:51 14:59:34 36° 263° (W) 15:04:21 437.125/150
BEESAT 27 Aug 14:55:53 14:58:30 15° 91° (E) 15:01:07 436.000
SPROUT 27 Aug 14:55:56 14:59:26 25° 293° (WNW) 15:02:54 437.525
AO-7 27 Aug 15:03:06 15:10:30 37° 58° (ENE) 15:17:53 29.400- 29.500
TISAT 1 27 Aug 15:15:35 15:19:47 65° 285° (WNW) 15:23:55 437.305
AO-85 27 Aug 15:22:19 15:26:37 79° 238° (WSW) 15:30:35 145.980
O/OREOS (USA 219) 27 Aug 15:22:22 15:26:48 62° 295° (WNW) 15:31:19 437.305
PCSat 27 Aug 15:22:33 15:24:54 13° 326° (NW) 15:27:15 145.827
UKube-1 27 Aug 15:35:01 15:36:26 11° 300° (WNW) 15:37:51 .
ITUPSAT 1 27 Aug 15:41:39 15:46:10 41° 98° (E) 15:50:39 437.325
ISS 27 Aug 15:46:28 15:49:46 69° 32° (NNE) 15:53:03 145.825
Cosmos 2499 27 Aug 16:02:07 16:03:57 11° 303° (WNW) 16:05:45 435.465 / 435.565
Gurwin Techsat 1B 27 Aug 16:04:09 16:07:56 20° 268° (W) 16:11:44 435.225
ITAMSAT 1 27 Aug 16:07:55 16:12:57 52° 260° (W) 16:18:02 435.822/435.867
SWISSCUBE 27 Aug 16:14:45 16:19:31 82° 286° (WNW) 16:24:18 437.505
BEESAT 27 Aug 16:31:59 16:36:42 62° 287° (WNW) 16:41:23 436.000
YUBILEINY 27 Aug 16:38:30 16:44:18 19° 60° (ENE) 16:50:02 435.215
KKS-1 27 Aug 16:44:27 16:47:52 21° 94° (E) 16:51:14 437.445
MOZHAYETS 4 27 Aug 16:47:50 16:51:53 31° 96° (E) 16:55:57
AO-7 27 Aug 16:54:46 17:02:56 56° 257° (WSW) 17:11:08 29.400- 29.500
HORYU 2 27 Aug 17:05:10 17:09:08 32° 68° (ENE) 17:13:06 437.375
NOAA 15 27 Aug 17:12:08 17:14:19 13° 57° (ENE) 17:16:28 137.62
ITUPSAT 1 27 Aug 17:20:01 17:23:45 23° 295° (WNW) 17:27:28 437.325
BRITE-PL 27 Aug 17:20:48 17:24:27 21° 62° (ENE) 17:28:17 437.365/2234.400
STARS 27 Aug 17:20:49 17:24:27 25° 95° (E) 17:28:03 437.465
ISS 27 Aug 17:23:53 17:25:53 15° 228° (SW) 17:27:52 145.825
BEESAT 3 27 Aug 17:39:55 17:40:27 10° 35° (NE) 17:40:59 437.485
NOAA 18 27 Aug 17:46:24 17:50:17 20° 60° (ENE) 17:54:08 137.9125
SWISSCUBE 27 Aug 17:55:44 17:56:31 10° 303° (WNW) 17:57:19 437.505
CUBESAT XI-V 27 Aug 18:07:17 18:11:20 28° 95° (E) 18:15:21 437.345
Cosmos 2491 27 Aug 18:16:22 18:23:56 35° 84° (E) 18:31:33 435.465 / 435.565
KKS-1 27 Aug 18:20:24 18:24:32 38° 290° (WNW) 18:28:38 437.445
MOZHAYETS 4 27 Aug 18:25:06 18:28:58 27° 292° (WNW) 18:32:49
YUBILEINY 27 Aug 18:33:43 18:42:33 85° 82° (E) 18:51:17 435.215
GOMX 1 27 Aug 18:34:23 18:39:15 47° 70° (ENE) 18:44:24 467.674
Cubesat XI-IV 27 Aug 18:34:26 18:39:35 50° 70° (ENE) 18:44:44 437.490
HORYU 2 27 Aug 18:42:02 18:45:42 25° 265° (W) 18:49:23 437.375
DOVE 4 27 Aug 18:42:33 18:46:54 28° 66° (ENE) 18:51:22 437.250
CUTE-I 27 Aug 18:46:12 18:51:28 65° 72° (ENE) 18:56:45 437.470
NOAA 15 27 Aug 18:48:00 18:53:15 85° 75° (ENE) 18:58:34 137.62
Cosmos 2504 27 Aug 18:54:07 19:00:55 41° 73° (ENE) 19:07:35 435.465 / 435.565
BEESAT 2 27 Aug 18:56:51 19:00:12 25° 46° (NE) 19:03:33 435.950
STARS 27 Aug 18:56:55 19:00:49 31° 292° (WNW) 19:04:41 437.465
BRITE-PL 27 Aug 18:57:45 19:02:27 51° 262° (W) 19:07:35 437.365/2234.400
LilacSat-2 27 Aug 19:07:14 19:11:06 78° 258° (WSW) 19:14:56 437.200
HO-68 27 Aug 19:11:24 19:17:02 26° 57° (ENE) 19:22:40 435.675
BEESAT 3 27 Aug 19:14:58 19:18:55 65° 54° (NE) 19:22:50 437.485
NOAA 18 27 Aug 19:24:55 19:30:25 65° 258° (WSW) 19:35:56 137.9125
CINEMA 3 27 Aug 19:25:04 19:28:48 21° 65° (ENE) 19:32:30 145.822/145.860
CUBESAT XI-V 27 Aug 19:44:31 19:48:41 32° 292° (WNW) 19:52:50 437.345
SEEDS 27 Aug 19:51:21 19:54:04 17° 65° (ENE) 19:56:45 437.485
CANX-2 27 Aug 20:11:11 20:15:10 44° 72° (ENE) 20:19:10 2200.000
Cosmos 2491 27 Aug 20:11:57 20:20:24 53° 285° (WNW) 20:28:57 435.465 / 435.565
GOMX 1 27 Aug 20:13:34 20:17:34 23° 269° (W) 20:21:45 467.674
Cubesat XI-IV 27 Aug 20:15:52 20:19:54 22° 267° (W) 20:23:59 437.490
CUTE 1.7 + AOD 2 27 Aug 20:17:18 20:21:17 44° 72° (ENE) 20:25:18 437.475
DOVE 4 27 Aug 20:19:32 20:24:22 40° 264° (W) 20:29:22 437.250
AAUSAT CUBESAT 2 27 Aug 20:22:23 20:25:23 20° 66° (ENE) 20:28:23 437.432
CUTE-I 27 Aug 20:28:37 20:31:58 17° 269° (W) 20:35:19 437.470
COMPASS 1 27 Aug 20:29:40 20:33:16 29° 69° (ENE) 20:36:52 437.405
NOAA 15 27 Aug 20:31:45 20:33:42 12° 272° (W) 20:35:39 137.62
YUBILEINY 27 Aug 20:32:19 20:38:10 20° 282° (WNW) 20:44:01 435.215
BEESAT 2 27 Aug 20:34:26 20:38:06 35° 244° (WSW) 20:41:45 435.950
PCSat 27 Aug 20:39:11 20:43:33 24° 45° (NE) 20:47:55 145.827
Cosmos 2504 27 Aug 20:47:43 20:54:09 36° 273° (W) 21:00:30 435.465 / 435.565
BEESAT 3 27 Aug 20:54:36 20:56:03 12° 251° (WSW) 20:57:29 437.485
HO-68 27 Aug 20:56:58 21:04:08 70° 256° (WSW) 21:11:21 435.675
CINEMA 3 27 Aug 21:00:42 21:05:34 50° 261° (W) 21:10:25 145.822/145.860
STRAND 1 27 Aug 21:01:55 21:07:03 84° 102° (ESE) 21:12:11 437.568
Oscar 11 27 Aug 21:03:51 21:07:17 24° 67° (ENE) 21:10:44 145.826/435.025
AIST 2 27 Aug 21:07:32 21:11:04 26° 46° (NE) 21:14:35 435.215
FUNcube-1 27 Aug 21:10:58 21:14:41 27° 68° (ENE) 21:18:20 145.935
UWE-3 27 Aug 21:16:59 21:21:25 51° 73° (ENE) 21:25:46 435.000/436.395/437.385
CUBEBUG 2 27 Aug 21:19:00 21:23:41 80° 76° (ENE) 21:28:17 437.445
AIST 1 27 Aug 21:24:49 21:29:16 90° 84° (E) 21:33:38
SEEDS 27 Aug 21:25:28 21:29:25 43° 262° (W) 21:33:25 437.485
ZACube-1 27 Aug 21:31:46 21:36:03 47° 72° (ENE) 21:40:15 437.345
CANX-2 27 Aug 21:48:36 21:51:14 16° 268° (W) 21:53:54 2200.000
CUTE 1.7 + AOD 2 27 Aug 21:54:45 21:57:21 16° 268° (W) 21:59:57 437.475
AAUSAT CUBESAT 2 27 Aug 21:56:52 22:00:38 35° 263° (W) 22:04:26 437.432
DELFI C3 27 Aug 22:00:34 22:04:12 38° 72° (ENE) 22:07:52 145.870
COMPASS 1 27 Aug 22:05:32 22:08:50 23° 266° (W) 22:12:09 437.405
Cosmos 2491 27 Aug 22:18:27 22:19:44 10° 309° (NW) 22:21:00 435.465 / 435.565
HUMSAT D 27 Aug 22:18:39 22:22:18 31° 70° (ENE) 22:25:58 437.325/437.525
PCSat 27 Aug 22:22:01 22:27:22 61° 244° (WSW) 22:32:40 145.827
AUBIESAT-1 27 Aug 22:26:42 22:29:53 19° 59° (ENE) 22:33:05 437.475
M-CUBED/EXP-1 PRIME 27 Aug 22:31:40 22:35:28 25° 61° (ENE) 22:39:16 437.505
PRISM 27 Aug 22:38:10 22:42:22 77° 287° (WNW) 22:46:32 437.425
Oscar 11 27 Aug 22:39:25 22:43:16 32° 264° (W) 22:47:09 145.826/435.025
STRAND 1 27 Aug 22:43:03 22:45:32 14° 301° (WNW) 22:48:00 437.568
AIST 2 27 Aug 22:45:46 22:49:38 36° 244° (WSW) 22:53:28 435.215
FUNcube-1 27 Aug 22:46:57 22:50:50 29° 264° (W) 22:54:40 145.935
GONETS M04 27 Aug 22:49:06 22:56:38 30° 67° (ENE) 23:04:05
HO-68 27 Aug 22:51:05 22:53:05 11° 274° (W) 22:55:05 435.675
UWE-3 27 Aug 22:55:18 22:58:08 16° 268° (W) 23:00:56 435.000/436.395/437.385
CUBEBUG 2 27 Aug 22:59:49 23:00:48 11° 272° (W) 23:01:48 437.445
TIGRISAT 27 Aug 23:00:19 23:03:13 18° 92° (E) 23:06:05 435.000
ESTCUBE 1 27 Aug 23:00:43 23:03:39 17° 63° (ENE) 23:06:35 437.505/2401.250
ZACube-1 27 Aug 23:09:41 23:12:33 17° 268° (W) 23:15:24 437.345
AISAT 27 Aug 23:09:54 23:11:50 13° 60° (ENE) 23:13:47 437.250
UNISAT 6 27 Aug 23:28:08 23:32:09 37° 98° (E) 23:36:06 437.425
DELFI C3 27 Aug 23:36:41 23:39:12 16° 268° (W) 23:41:44 145.870
CUSAT 1 27 Aug 23:41:57 23:44:00 17° 86° (E) 23:46:20 437.405
Cosmos 2499 27 Aug 23:51:10 23:57:59 48° 76° (ENE) 00:04:49 435.465 / 435.565
O/OREOS (USA 219) 27 Aug 23:52:29 23:56:36 31° 59° (ENE) 00:00:42 437.305
HUMSAT D 27 Aug 23:54:40 23:57:57 22° 266° (W) 00:01:14 437.325/437.525
VELOX 1 27 Aug 23:54:50 23:58:48 33° 68° (ENE) 00:02:48 145.980
CUBEBUG 1 27 Aug 23:56:28 00:00:35 40° 71° (ENE) 00:04:45 437.445
SO-50 27 Aug 23:58:23 00:02:40 32° 115° (ESE) 00:06:56 436.795
AUBIESAT-1 27 Aug 23:59:21 00:03:54 56° 255° (WSW) 00:08:29 437.475
QB50P1 28 Aug 00:02:05 00:03:51 12° 90° (E) 00:05:38 145.935-145.965
ANTELSAT 28 Aug 00:04:55 00:09:14 85° 284° (WNW) 00:13:29 437.575/2403.000
M-CUBED/EXP-1 PRIME 28 Aug 00:05:18 00:09:43 41° 257° (WSW) 00:14:11 437.505
POPSAT HIP 1 28 Aug 00:11:25 00:14:00 16° 92° (E) 00:16:33 437.405
DX 1 28 Aug 00:11:47 00:15:43 34° 69° (ENE) 00:19:42 434.975-435.025
SPROUT 28 Aug 00:14:09 00:17:45 26° 68° (ENE) 00:21:22 437.525
50 SAT 28 Aug 00:23:18 00:26:50 63° 76° (ENE) 00:30:24 437.505
ESTCUBE 1 28 Aug 00:35:43 00:40:03 50° 260° (W) 00:44:27 437.505/2401.250
TISAT 1 28 Aug 00:35:54 00:36:42 10° 60° (ENE) 00:37:31 437.305
TIGRISAT 28 Aug 00:36:04 00:40:07 41° 289° (WNW) 00:44:06 435.000
DUCHIFAT 1 28 Aug 00:38:11 00:41:47 27° 96° (E) 00:45:22 145.980
DANDE 28 Aug 00:39:52 00:41:51 19° 92° (E) 00:43:56 436.750
QB50P2 28 Aug 00:40:50 00:44:44 35° 97° (E) 00:48:36 145.880/145.840
AISAT 28 Aug 00:43:16 00:47:42 73° 257° (WSW) 00:52:11 437.250
POLYITAN 1 28 Aug 00:43:21 00:47:15 36° 98° (E) 00:51:07 437.675
GONETS M04 28 Aug 00:45:22 00:54:06 65° 268° (W) 01:02:47
UKube-1 28 Aug 00:51:35 00:55:52 71° 74° (ENE) 01:00:12 .
NANOSAT C BR1 28 Aug 00:51:46 00:55:47 41° 98° (E) 00:59:45 145.865
UNISAT 6 28 Aug 01:05:28 01:08:37 20° 295° (WNW) 01:11:45 437.425
JAS-2 28 Aug 01:12:08 01:18:38 44° 98° (E) 01:25:45 435.910
CUSAT 1 28 Aug 01:23:39 01:25:52 18° 294° (WNW) 01:28:27 437.405
VELOX 1 28 Aug 01:31:40 01:35:18 24° 265° (W) 01:38:57 145.980
O/OREOS (USA 219) 28 Aug 01:32:00 01:35:55 28° 256° (WSW) 01:39:50 437.305
BUGSAT 1 28 Aug 01:32:31 01:36:31 46° 99° (E) 01:40:27 437.445
RS-15 28 Aug 01:33:30 01:44:07 46° 109° (ESE) 01:55:14 29.354- 29.394
CUBEBUG 1 28 Aug 01:33:52 01:37:02 19° 267° (W) 01:40:14 437.445
QB50P1 28 Aug 01:35:51 01:40:01 58° 287° (WNW) 01:44:08 145.935-145.965
SO-50 28 Aug 01:38:35 01:43:05 37° 312° (NW) 01:47:33 436.795
Cosmos 2499 28 Aug 01:44:51 01:50:45 29° 275° (W) 01:56:41 435.465 / 435.565
POPSAT HIP 1 28 Aug 01:45:59 01:50:01 45° 288° (WNW) 01:54:02 437.405
SWISSCUBE 28 Aug 01:46:34 01:49:18 15° 61° (ENE) 01:52:01 437.505
DX 1 28 Aug 01:48:31 01:51:58 23° 265° (W) 01:55:27 434.975-435.025
SPROUT 28 Aug 01:49:50 01:53:35 29° 264° (W) 01:57:23 437.525
BEESAT 28 Aug 02:02:53 02:06:16 20° 63° (ENE) 02:09:41 436.000
TISAT 1 28 Aug 02:07:26 02:11:42 82° 257° (WSW) 02:15:59 437.305
DUCHIFAT 1 28 Aug 02:13:54 02:17:24 26° 292° (WNW) 02:20:52 145.980
QB50P2 28 Aug 02:17:08 02:20:18 21° 294° (WNW) 02:23:28 145.880/145.840
POLYITAN 1 28 Aug 02:19:41 02:22:49 21° 294° (WNW) 02:25:57 437.675
PHONESAT 2.4 28 Aug 02:19:50 02:21:45 16° 154° (SSE) 02:23:40 2401.200-2431.200
NANOSAT C BR1 28 Aug 02:28:20 02:31:12 18° 295° (WNW) 02:34:04 145.865
UKube-1 28 Aug 02:31:28 02:32:24 11° 271° (W) 02:33:19 .
Gurwin Techsat 1B 28 Aug 02:38:39 02:42:33 20° 92° (E) 02:46:25 435.225
GONETS M04 28 Aug 02:46:22 02:49:01 12° 288° (WNW) 02:51:40
ITUPSAT 1 28 Aug 02:48:59 02:53:36 52° 71° (ENE) 02:58:14 437.325
JAS-2 28 Aug 02:57:24 03:03:33 39° 293° (WNW) 03:10:19 435.910
Oscar 19 28 Aug 03:04:55 03:10:08 75° 101° (ESE) 03:15:20 437.125/150
BUGSAT 1 28 Aug 03:08:58 03:11:30 16° 296° (WNW) 03:14:01 437.445
SWISSCUBE 28 Aug 03:21:50 03:26:34 66° 259° (WSW) 03:31:18 437.505
BEESAT 28 Aug 03:39:06 03:43:42 49° 260° (W) 03:48:20 436.000
KKS-1 28 Aug 03:43:17 03:46:47 23° 65° (ENE) 03:50:17 437.445
RS-15 28 Aug 03:44:46 03:56:15 60° 313° (NW) 04:08:22 29.354- 29.394
MOZHAYETS 4 28 Aug 03:50:26 03:54:28 32° 69° (ENE) 03:58:32
PHONESAT 2.4 28 Aug 03:54:49 03:57:41 43° 169° (S) 04:00:34 2401.200-2431.200
Gurwin Techsat 1B 28 Aug 04:17:38 04:22:48 53° 289° (WNW) 04:27:57 435.225
STARS 28 Aug 04:18:11 04:21:49 26° 67° (ENE) 04:25:29 437.465
ITAMSAT 1 28 Aug 04:19:43 04:24:46 51° 100° (E) 04:29:48 435.822/435.867
Cosmos 2491 28 Aug 04:25:39 04:31:21 18° 59° (ENE) 04:37:01 435.465 / 435.565
ITUPSAT 1 28 Aug 04:28:37 04:31:45 17° 268° (W) 04:34:52 437.325
Oscar 19 28 Aug 04:45:49 04:48:49 16° 301° (WNW) 04:51:51 437.125/150
AO-7 28 Aug 04:55:15 05:03:15 49° 101° (E) 05:11:11 29.400- 29.500
CUBESAT XI-V 28 Aug 05:11:23 05:15:21 30° 68° (ENE) 05:19:22 437.345
KKS-1 28 Aug 05:18:58 05:23:07 37° 262° (W) 05:27:19 437.445
MOZHAYETS 4 28 Aug 05:27:52 05:31:39 25° 265° (W) 05:35:27
PHONESAT 2.4 28 Aug 05:30:56 05:33:51 51° 186° (S) 05:36:47 2401.200-2431.200
AO-85 28 Aug 05:36:32 05:41:12 32° 114° (ESE) 05:45:40 145.980
YUBILEINY 28 Aug 05:42:21 05:48:09 20° 77° (ENE) 05:53:56 435.215
STARS 28 Aug 05:54:05 05:58:03 32° 263° (W) 06:02:02 437.465
ITAMSAT 1 28 Aug 06:00:00 06:03:53 22° 297° (WNW) 06:07:44 435.822/435.867
RS-15 28 Aug 06:02:10 06:12:03 28° 344° (NNW) 06:22:14 29.354- 29.394
Cosmos 2491 28 Aug 06:20:48 06:29:42 82° 82° (E) 06:38:33 435.465 / 435.565
HORYU 2 28 Aug 06:31:04 06:35:26 56° 101° (E) 06:39:46 437.375
GOMX 1 28 Aug 06:37:04 06:40:02 15° 87° (E) 06:42:56 467.674
STRAND 1 28 Aug 06:41:44 06:45:02 18° 61° (ENE) 06:48:20 437.568
LilacSat-2 28 Aug 06:42:29 06:43:06 10° 90° (E) 06:43:42 437.200
AO-7 28 Aug 06:48:17 06:55:52 41° 300° (WNW) 07:03:24 29.400- 29.500
CUBESAT XI-V 28 Aug 06:48:41 06:52:41 29° 265° (W) 06:56:42 437.345
Cubesat XI-IV 28 Aug 06:51:45 06:55:24 18° 92° (E) 06:59:02 437.490
BRITE-PL 28 Aug 07:01:11 07:06:48 54° 99° (E) 07:12:16 437.365/2234.400
NOAA 15 28 Aug 07:02:41 07:07:20 30° 96° (E) 07:11:57 137.62
CUTE-I 28 Aug 07:03:02 07:07:17 24° 94° (E) 07:11:30 437.470
PHONESAT 2.4 28 Aug 07:07:29 07:09:54 22° 202° (SSW) 07:12:17 2401.200-2431.200
AO-85 28 Aug 07:16:40 07:21:37 40° 311° (NW) 07:26:18 145.980
Cosmos 2504 28 Aug 07:32:56 07:40:21 36° 87° (E) 07:47:22 435.465 / 435.565
YUBILEINY 28 Aug 07:34:52 07:43:43 87° 276° (W) 07:52:37 435.215
NOAA 18 28 Aug 07:46:10 07:51:30 50° 100° (E) 07:56:47 137.9125
HORYU 2 28 Aug 08:08:56 08:11:31 16° 298° (WNW) 08:14:07 437.375
GOMX 1 28 Aug 08:13:16 08:18:43 73° 285° (WNW) 08:23:52 467.674
LilacSat-2 28 Aug 08:14:03 08:17:45 55° 286° (WNW) 08:21:25 437.200
DOVE 4 28 Aug 08:17:41 08:22:43 59° 100° (E) 08:27:25 437.250
STRAND 1 28 Aug 08:18:38 08:23:42 64° 258° (WSW) 08:28:47 437.568
Cosmos 2491 28 Aug 08:19:19 08:25:25 21° 282° (WNW) 08:31:33 435.465 / 435.565
RS-15 28 Aug 08:19:36 08:29:54 29° 19° (NNE) 08:40:14 29.354- 29.394
HO-68 28 Aug 08:24:48 08:30:10 22° 92° (E) 08:35:29 435.675
ISS 28 Aug 08:28:23 08:29:57 13° 131° (SE) 08:31:32 145.825
SO-50 28 Aug 08:28:47 08:33:04 35° 47° (NE) 08:37:13 436.795
Cubesat XI-IV 28 Aug 08:30:38 08:35:51 58° 289° (WNW) 08:41:03 437.490
BRITE-PL 28 Aug 08:40:22 08:44:50 24° 296° (WNW) 08:49:15 437.365/2234.400
NOAA 15 28 Aug 08:42:17 08:47:07 37° 293° (WNW) 08:51:57 137.62
CUTE-I 28 Aug 08:42:28 08:47:32 46° 290° (WNW) 08:52:33 437.470
CINEMA 3 28 Aug 08:55:07 08:59:20 37° 97° (E) 09:03:20 145.822/145.860
SEEDS 28 Aug 09:08:32 09:12:08 27° 95° (E) 09:15:45 437.485
CUBEBUG 2 28 Aug 09:10:44 09:13:05 14° 90° (E) 09:15:23 437.445
Cosmos 2504 28 Aug 09:25:27 09:33:31 49° 284° (WNW) 09:41:06 435.465 / 435.565
NOAA 18 28 Aug 09:27:31 09:31:49 24° 298° (WNW) 09:36:06 137.9125
PRISM 28 Aug 09:27:58 09:32:03 83° 77° (ENE) 09:36:12 437.425
CANX-2 28 Aug 09:30:43 09:34:59 81° 102° (ESE) 09:39:14 2200.000
ANTELSAT 28 Aug 09:31:29 09:32:27 11° 60° (ENE) 09:33:25 437.575/2403.000
YUBILEINY 28 Aug 09:35:54 09:41:54 20° 300° (WNW) 09:47:56 435.215
CUTE 1.7 + AOD 2 28 Aug 09:36:43 09:40:58 82° 101° (E) 09:45:14 437.475
AAUSAT CUBESAT 2 28 Aug 09:38:01 09:41:45 31° 96° (E) 09:45:29 437.432
COMPASS 1 28 Aug 09:46:23 09:50:28 50° 99° (E) 09:54:33 437.405
GOMX 1 28 Aug 09:54:14 09:55:45 11° 304° (NW) 09:57:15 467.674
AIST 1 28 Aug 09:54:39 09:58:50 50° 93° (E) 10:03:05
DOVE 4 28 Aug 09:56:29 09:59:51 18° 298° (WNW) 10:03:06 437.250
TIGRISAT 28 Aug 09:59:40 10:02:57 20° 65° (ENE) 10:06:11 435.000
ISS 28 Aug 10:02:42 10:05:59 80° 328° (NNW) 10:09:18 145.825
SO-50 28 Aug 10:09:29 10:13:24 29° 246° (WSW) 10:17:15 436.795
CUSAT 1 28 Aug 10:09:48 10:15:26 31° 72° (ENE) 10:22:00 437.405
HO-68 28 Aug 10:11:21 10:18:29 71° 290° (WNW) 10:25:35 435.675
Oscar 11 28 Aug 10:25:15 10:29:21 41° 98° (E) 10:33:26 145.826/435.025
BEESAT 2 28 Aug 10:26:50 10:30:17 30° 115° (ESE) 10:33:47 435.950
UNISAT 6 28 Aug 10:27:20 10:31:35 38° 71° (ENE) 10:35:47 437.425
CINEMA 3 28 Aug 10:32:45 10:36:13 22° 295° (WNW) 10:39:33 145.822/145.860
RS-15 28 Aug 10:33:09 10:45:29 65° 49° (NE) 10:57:36 29.354- 29.394
FUNcube-1 28 Aug 10:33:33 10:37:34 46° 99° (E) 10:41:32 145.935
UWE-3 28 Aug 10:42:08 10:46:21 80° 282° (WNW) 10:50:28 435.000/436.395/437.385
BEESAT 3 28 Aug 10:43:12 10:47:06 89° 300° (WNW) 10:51:04 437.485
SEEDS 28 Aug 10:44:15 10:47:46 26° 292° (WNW) 10:51:17 437.485
CUBEBUG 2 28 Aug 10:45:56 10:50:01 48° 288° (WNW) 10:54:01 437.445
ZACube-1 28 Aug 10:55:18 10:59:29 90° 240° (WSW) 11:03:37 437.345
QB50P1 28 Aug 10:56:03 10:57:35 12° 61° (ENE) 10:59:07 145.935-145.965
ANTELSAT 28 Aug 11:03:53 11:08:30 89° 270° (W) 11:13:01 437.575/2403.000
POPSAT HIP 1 28 Aug 11:05:13 11:07:33 15° 63° (ENE) 11:09:53 437.405
CANX-2 28 Aug 11:09:34 11:10:11 10° 299° (WNW) 11:10:48 2200.000
DELFI C3 28 Aug 11:11:34 11:15:31 57° 101° (E) 11:19:27 145.870
DANDE 28 Aug 11:12:01 11:16:59 36° 76° (ENE) 11:23:14 436.750
AAUSAT CUBESAT 2 28 Aug 11:13:48 11:17:04 23° 293° (WNW) 11:20:20 437.432
CUTE 1.7 + AOD 2 28 Aug 11:15:40 11:16:10 10° 299° (WNW) 11:16:39 437.475
COMPASS 1 28 Aug 11:23:10 11:25:38 15° 296° (WNW) 11:28:05 437.405
PCSat 28 Aug 11:23:42 11:26:42 15° 104° (ESE) 11:29:43 145.827
JAS-2 28 Aug 11:28:32 11:31:45 16° 57° (ENE) 11:35:06 435.910
DUCHIFAT 1 28 Aug 11:30:55 11:34:18 24° 67° (ENE) 11:37:42 145.980
QB50P2 28 Aug 11:34:08 11:37:53 30° 69° (ENE) 11:41:38 145.880/145.840
AIST 1 28 Aug 11:34:13 11:36:46 15° 291° (WNW) 11:39:20
TIGRISAT 28 Aug 11:34:55 11:39:20 45° 261° (W) 11:43:40 435.000
HUMSAT D 28 Aug 11:36:05 11:40:04 50° 100° (E) 11:44:04 437.325/437.525
POLYITAN 1 28 Aug 11:36:38 11:40:23 31° 69° (ENE) 11:44:09 437.675
ISS 28 Aug 11:40:13 11:42:51 22° 346° (NNW) 11:45:29 145.825
NANOSAT C BR1 28 Aug 11:44:30 11:48:22 34° 70° (ENE) 11:52:14 145.865
M-CUBED/EXP-1 PRIME 28 Aug 11:46:11 11:47:46 12° 94° (E) 11:49:18 437.505
CUSAT 1 28 Aug 11:51:17 11:57:35 53° 265° (W) 12:05:02 437.405
GONETS M04 28 Aug 11:51:52 11:59:14 32° 83° (E) 12:06:39
HO-68 28 Aug 12:01:11 12:04:59 15° 310° (NW) 12:08:46 435.675
Oscar 11 28 Aug 12:02:09 12:05:11 19° 295° (WNW) 12:08:13 145.826/435.025
BEESAT 2 28 Aug 12:04:41 12:08:06 27° 313° (NW) 12:11:33 435.950
UNISAT 6 28 Aug 12:04:52 12:08:24 22° 266° (W) 12:11:55 437.425
FUNcube-1 28 Aug 12:10:57 12:13:26 16° 296° (WNW) 12:15:56 145.935
BUGSAT 1 28 Aug 12:22:40 12:26:34 36° 70° (ENE) 12:30:29 437.445
BEESAT 3 28 Aug 12:23:35 12:25:23 13° 322° (NW) 12:27:10 437.485
ESTCUBE 1 28 Aug 12:27:24 12:31:26 31° 96° (E) 12:35:27 437.505/2401.250
Cosmos 2499 28 Aug 12:28:17 12:35:42 41° 88° (E) 12:42:38 435.465 / 435.565
QB50P1 28 Aug 12:28:30 12:32:46 73° 258° (WSW) 12:37:03 145.935-145.965
AISAT 28 Aug 12:33:24 12:36:42 20° 93° (E) 12:39:58 437.250
POPSAT HIP 1 28 Aug 12:38:40 12:42:52 57° 259° (W) 12:47:06 437.405
UKube-1 28 Aug 12:40:23 12:41:32 11° 90° (E) 12:42:41 .
AIST 2 28 Aug 12:43:41 12:47:25 35° 116° (ESE) 12:51:14 435.215
Oscar 19 28 Aug 12:45:49 12:48:56 16° 60° (ENE) 12:52:05 437.125/150
RS-15 28 Aug 12:46:19 12:57:29 43° 253° (WSW) 13:08:28 29.354- 29.394
DELFI C3 28 Aug 12:48:06 12:49:53 13° 297° (WNW) 12:51:39 145.870
DANDE 28 Aug 12:54:40 12:59:42 37° 265° (W) 13:06:02 436.750
PCSat 28 Aug 13:03:59 13:09:24 77° 301° (WNW) 13:14:52 145.827
DUCHIFAT 1 28 Aug 13:06:02 13:09:51 32° 263° (W) 13:13:40 145.980
QB50P2 28 Aug 13:10:10 13:13:41 24° 265° (W) 13:17:12 145.880/145.840
JAS-2 28 Aug 13:10:58 13:16:08 70° 258° (WSW) 13:21:42 435.910
AUBIESAT-1 28 Aug 13:12:17 13:16:23 82° 287° (WNW) 13:20:07 437.475
POLYITAN 1 28 Aug 13:12:43 13:16:12 24° 265° (W) 13:19:41 437.675
HUMSAT D 28 Aug 13:13:03 13:15:17 14° 296° (WNW) 13:17:31 437.325/437.525
ISS 28 Aug 13:17:47 13:20:10 18° 7° (N) 13:22:32 145.825
M-CUBED/EXP-1 PRIME 28 Aug 13:18:40 13:22:46 56° 292° (WNW) 13:26:30 437.505
VELOX 1 28 Aug 13:19:51 13:24:17 58° 101° (E) 13:28:40 145.980
CUBEBUG 1 28 Aug 13:20:01 13:24:28 74° 102° (ESE) 13:28:52 437.445
NANOSAT C BR1 28 Aug 13:20:54 13:24:10 21° 266° (W) 13:27:26 145.865
50 SAT 28 Aug 13:24:00 13:27:39 71° 102° (ESE) 13:31:17 437.505
SPROUT 28 Aug 13:34:19 13:38:25 43° 99° (E) 13:42:29 437.525
DX 1 28 Aug 13:34:40 13:39:01 56° 101° (E) 13:43:19 434.975-435.025
GONETS M04 28 Aug 13:46:57 13:55:32 58° 283° (WNW) 14:04:14
TISAT 1 28 Aug 13:52:01 13:54:19 14° 91° (E) 13:56:35 437.305
BUGSAT 1 28 Aug 13:58:53 14:02:03 20° 266° (W) 14:05:13 437.445
Gurwin Techsat 1B 28 Aug 14:00:13 14:05:00 35° 67° (ENE) 14:09:48 435.225
ITAMSAT 1 28 Aug 14:02:55 14:04:56 12° 57° (ENE) 14:06:57 435.822/435.867
ESTCUBE 1 28 Aug 14:04:20 14:08:08 27° 293° (WNW) 14:11:57 437.505/2401.250
O/OREOS (USA 219) 28 Aug 14:05:50 14:09:41 29° 104° (ESE) 14:13:36 437.305
